Location: Newark
(49.3667°N, 21.6167°E)
Time: 05:28:48
(UTC+00:00)

Envisat - Pass Details

Date: 16 December 2019
Orbit: 764 x 766 km, 98.1° (Epoch: 20 January)

Event Time Altitude Azimuth Distance (km) Brightness Sun altitude
Rises 17:13:44 0° 193° (SSW) 3,221 6.5 -24.6°
Reaches altitude 10° 17:16:16 10° 203° (SSW) 2,300 5.8 -25.0°
Maximum altitude 17:20:45 31° 266° (W) 1,318 4.8 -25.7°
Drops below altitude 10° 17:25:17 10° 328° (NNW) 2,315 5.8 -26.5°
Sets 17:27:51 0° 339° (NNW) 3,246 6.4 -26.9°
